Home   Weather   Podgorica   Past weeks
Flag for Montenegro

Past Weather in Podgorica, Montenegro — Yesterday and Last 2 Weeks

Now
79 °F

Passing clouds.


Feels Like: 79 °F
Forecast: 79 / 58 °F
Wind: 2 mph from North

Location: Podgorica Titograd

Current Time: Oct 16, 2019 at 2:26:18 pm

Latest Report: Oct 16, 2019 at 2:00 pm


Visibility: N/A

Pressure: 30.04 "Hg

Humidity: 39%

Dew Point: 52 °F

Location of PodgoricaLocation

Past Weather in Podgorica — Graph

°F

Podgorica Temperature Yesterday

Maximum temperature yesterday: 77 °F (at 1:00 pm)
Minimum temperature yesterday: 54 °F (at 7:00 am)
Average temperature yesterday: 65 °F

High & Low Weather Summary for the Past Weeks

 TemperatureHumidityPressure
High84 °F (Oct 1, 3:00 pm)94% (Oct 3, 1:30 am)30.24 "Hg (Oct 3, 1:30 am)
Low50 °F (Oct 9, 6:30 am)26% (Oct 8, 12:30 pm)29.71 "Hg (Oct 2, 11:00 pm)
Average65 °F63%29.99 "Hg
* Reported Oct 1 1:00 pm — Oct 16 1:00 pm, Podgorica. Weather by CustomWeather, © 2019

Note: Actual official high and low records may vary slightly from our data, if they occured in-between our weather recording intervals... More about our weather records

Advertising

Podgorica Weather History for the Previous 24 Hours

Scroll right to see more
 ConditionsComfort  
Time TempWeatherWind HumidityBarometerVisibility
1:00 pm
Wed, Oct 16
75 °FPassing clouds.1 mph47%30.04 "HgN/A
12:30 pm75 °FSunny.2 mph47%30.07 "Hg10 mi
12:00 pm73 °FPassing clouds.3 mph44%30.07 "HgN/A
11:30 am72 °FSunny.1 mph47%30.07 "Hg10 mi
11:00 am72 °FSunny.2 mph47%30.07 "Hg10 mi
10:30 am70 °FSunny.2 mph53%30.07 "Hg10 mi
10:00 am66 °FPassing clouds.6 mph60%30.07 "HgN/A
9:30 am66 °FPassing clouds.5 mph60%30.07 "HgN/A
9:00 am64 °FSunny.5 mph64%30.07 "Hg10 mi
8:30 am61 °FPassing clouds.3 mph72%30.07 "HgN/A
8:00 am57 °FSunny.5 mph77%30.07 "Hg10 mi
7:30 am54 °FSunny.2 mph88%30.07 "Hg10 mi
7:00 am52 °FSunny.1 mph94%30.04 "Hg10 mi
6:30 am54 °FClear.1 mph88%30.04 "Hg10 mi
6:00 am55 °FClear.1 mph82%30.04 "Hg10 mi
5:30 am55 °FClear.2 mph82%30.04 "Hg10 mi
4:30 am57 °FPassing clouds.3 mph82%30.07 "HgN/A
4:00 am57 °FClear.2 mph82%30.07 "Hg10 mi
3:30 am55 °FClear.1 mph88%30.07 "Hg10 mi
3:00 am55 °FClear.1 mph88%30.07 "Hg10 mi
2:30 am57 °FClear.2 mph82%30.07 "Hg10 mi
2:00 am57 °FClear.2 mph82%30.07 "Hg10 mi
1:30 am57 °FClear.5 mph88%30.07 "Hg10 mi
1:00 am59 °FClear.2 mph82%30.07 "Hg10 mi
12:30 am59 °FPassing clouds.5 mph82%30.07 "HgN/A
12:00 am59 °FClear.5 mph82%30.07 "Hg10 mi
11:00 pm
Tue, Oct 15
61 °FPassing clouds.5 mph83%30.04 "HgN/A
10:30 pm61 °FClear.5 mph83%30.04 "Hg10 mi
10:00 pm63 °FClear.1 mph77%30.04 "Hg10 mi
9:30 pm63 °FClear.5 mph83%30.04 "Hg10 mi
9:00 pm61 °FClear.2 mph88%30.04 "Hg10 mi
8:30 pm63 °FClear.1 mph83%30.04 "Hg10 mi
8:00 pm64 °FClear.1 mph78%30.04 "Hg10 mi
7:30 pm64 °FClear.3 mph78%30.04 "Hg10 mi
7:00 pm66 °FClear.No wind73%30.01 "Hg10 mi
6:30 pm68 °FClear.No wind69%30.01 "Hg10 mi
6:00 pm72 °FSunny.3 mph61%30.01 "Hg10 mi
5:30 pm73 °FSunny.No wind57%30.01 "Hg10 mi
5:00 pm73 °FPassing clouds.3 mph57%30.01 "HgN/A
4:30 pm75 °FPassing clouds.5 mph54%30.01 "HgN/A
4:00 pm75 °FPassing clouds.5 mph54%30.01 "HgN/A
3:30 pm77 °FPassing clouds.3 mph47%30.04 "HgN/A
3:00 pm77 °FPassing clouds.6 mph47%30.04 "HgN/A
2:30 pm77 °FPassing clouds.3 mph47%30.04 "HgN/A
2:00 pm77 °FPassing clouds.3 mph44%30.07 "HgN/A
Weather by CustomWeather, © 2019

See weather overview